Spokane Felts, WA

9:38 AM PDT on April 26, 2018 (GMT -0700)
Felts

Weather History for KSFF - September, 2012

Change the Weather History Date:

Monday, September 10, 2012

  Actual Average Record
Temperature  
Mean Temperature 60 °F 63 °F  
Max Temperature 70 °F 77 °F 95 °F (2011)
Min Temperature 49 °F 48 °F 43 °F (2007)
Degree Days  
Heating Degree Days 5 4  
Month to date heating degree days 11 29  
Since 1 July heating degree days 31 75  
Cooling Degree Days 0 1  
Month to date cooling degree days 9 20  
Year to date cooling degree days 504 396  
Growing Degree Days 10 (Base 50)    
Moisture  
Dew Point 33 °F    
Average Humidity 41    
Maximum Humidity 66    
Minimum Humidity 15    
Precipitation  
Precipitation T in 0.02 in 0.51 in (2000)
Month to date precipitation T 0.25  
Year to date precipitation 13.87 10.99  
Sea Level Pressure  
Sea Level Pressure 29.94 in    
Wind  
Wind Speed 13 mph (SW)    
Max Wind Speed 28 mph    
Max Gust Speed 37 mph    
Visibility 9 miles    
Events Rain    
T = Trace of Precipitation, MM = Missing Value Source: NWS Daily Summary

Daily Weather History Graph

Daily Weather History Graph

Search for Another Location

Airport or City:

Astronomy

Sep. 10, 2012 Rise Set
Actual Time 6:20 AM PDT 7:10 PM PDT
Civil Twilight 5:49 AM PDT 7:41 PM PDT
Nautical Twilight 5:11 AM PDT 8:18 PM PDT
Astronomical Twilight 4:32 AM PDT 8:58 PM PDT
Moon 12:27 AM PDT (9/10) 4:00 PM PDT (9/10)
Length of Visible Light 13h 52m
Length of Day
12h 49m
Waning Crescent, 29% of the Moon is Illuminated
Sep 10
Waning Crescent
Sep 15
New
Sep 22
First Quarter
Sep 29
Full
Oct 8
Last Quarter

Hourly Weather History & Observations

Time (PDT) Temp. Dew Point Humidity Pressure Visibility Wind Dir Wind Speed Gust Speed Precip Events Conditions
12:53 AM 57.9 °F 39.0 °F 49% 29.84 in 10.0 mi SSW 9.2 mph 18.4 mph N/A   Clear
1:53 AM 55.9 °F 42.1 °F 60% 29.86 in 10.0 mi Variable 5.8 mph 17.3 mph N/A   Clear
2:53 AM 55.0 °F 42.1 °F 62% 29.88 in 10.0 mi SW 10.4 mph - N/A   Clear
3:53 AM 55.0 °F 42.1 °F 62% 29.87 in 10.0 mi South 9.2 mph - N/A   Clear
4:53 AM 54.0 °F 43.0 °F 66% 29.87 in 10.0 mi SSW 10.4 mph 18.4 mph N/A   Scattered Clouds
5:53 AM 54.0 °F 43.0 °F 66% 29.90 in 10.0 mi SSW 9.2 mph - N/A   Partly Cloudy
6:53 AM 54.0 °F 44.1 °F 69% 29.90 in 10.0 mi SSW 6.9 mph 18.4 mph 0.00 in Rain Light Rain
7:53 AM 55.0 °F 44.1 °F 67% 29.92 in 10.0 mi SSW 8.1 mph 16.1 mph 0.00 in   Overcast
8:53 AM 57.0 °F 44.1 °F 62% 29.93 in 10.0 mi SW 9.2 mph 17.3 mph N/A   Mostly Cloudy
9:53 AM 59.0 °F 44.1 °F 58% 29.94 in 10.0 mi SW 17.3 mph 26.5 mph N/A   Overcast
10:53 AM 62.1 °F 44.1 °F 52% 29.94 in 10.0 mi SW 19.6 mph 25.3 mph N/A   Scattered Clouds
11:53 AM 64.4 °F 42.8 °F 45% 29.94 in 10.0 mi SW 21.9 mph 29.9 mph N/A   Overcast
12:53 PM 66.9 °F 39.0 °F 36% 29.92 in 8.0 mi SW 26.5 mph 35.7 mph N/A   Mostly Cloudy
1:10 PM 68.0 °F 37.4 °F 33% 29.94 in 8.0 mi WSW 19.6 mph 33.4 mph N/A   Overcast
1:33 PM 69.8 °F 26.6 °F 20% 29.94 in 8.0 mi WSW 24.2 mph 32.2 mph N/A   Mostly Cloudy
1:53 PM 69.1 °F 19.9 °F 15% 29.91 in 5.0 mi SW 23.0 mph 32.2 mph N/A   Haze
2:53 PM 69.1 °F 23.0 °F 18% 29.91 in 7.0 mi WSW 16.1 mph 32.2 mph N/A   Widespread Dust
3:53 PM 68.0 °F 19.0 °F 15% 29.92 in 10.0 mi WSW 17.3 mph 29.9 mph N/A   Widespread Dust
4:53 PM 66.9 °F 19.0 °F 16% 29.92 in 7.0 mi WSW 18.4 mph 25.3 mph N/A   Smoke
5:53 PM 66.0 °F 19.0 °F 17% 29.92 in 10.0 mi SW 17.3 mph 27.6 mph N/A   Clear
6:53 PM 64.0 °F 21.0 °F 19% 29.94 in 10.0 mi WSW 13.8 mph 24.2 mph N/A   Partly Cloudy
7:53 PM 62.1 °F 24.1 °F 23% 29.97 in 10.0 mi WSW 9.2 mph 16.1 mph N/A   Scattered Clouds
8:53 PM 59.0 °F 27.0 °F 29% 30.00 in 10.0 mi WSW 12.7 mph 19.6 mph N/A   Overcast
9:53 PM 55.9 °F 28.0 °F 34% 30.01 in 6.0 mi WSW 9.2 mph - N/A   Haze
10:53 PM 52.0 °F 28.0 °F 40% 30.02 in 7.0 mi WSW 5.8 mph - N/A   Overcast
11:23 PM 51.8 °F 28.4 °F 41% 30.03 in 8.0 mi WSW 9.2 mph - N/A   Overcast
11:42 PM 51.8 °F 26.6 °F 38% 30.04 in 8.0 mi WSW 11.5 mph - N/A   Scattered Clouds
11:53 PM 52.0 °F 28.0 °F 40% 30.03 in 8.0 mi WSW 8.1 mph - N/A   Clear